When you browse on this site, cookies collect data to enhance your experience and personalize the content and advertising you see.
Visit our Privacy Policy to learn more. By continuing to use the site, you agree to this use of cookies and data.
  • In Latvia
  • List of Countries
  • For 7 days
  • Water Temperature
  • Weather Map
  • Weather Widgets
  • user-avatar
    Login

    Hourly Weather Hobart

    Today, 30 May, Saturday

    Time Temperature Precipitation Wind Pressure Humidity
    00:00 +8°C° 0 mm 3 mps 751 mmHg 82%
    01:00 +8°C° 0 mm 3 mps 750 mmHg 82%
    02:00 +8°C° 0 mm 3 mps 750 mmHg 83%
    03:00 +8°C° 0 mm 3 mps 750 mmHg 84%
    04:00 +7°C° 0 mm 3 mps 750 mmHg 84%
    05:00 +7°C° 0 mm 3 mps 750 mmHg 86%
    06:00 +7°C° 0 mm 3 mps 749 mmHg 88%
    07:00 +7°C° 0 mm 3 mps 749 mmHg 90%
    08:00 +8°C° 0 mm 3 mps 749 mmHg 82%
    09:00 +10°C° 0 mm 3 mps 749 mmHg 73%
    10:00 +12°C° 0 mm 4 mps 749 mmHg 65%
    11:00 +13°C° 0 mm 4 mps 748 mmHg 61%
    12:00 +14°C° 0 mm 5 mps 747 mmHg 56%
    13:00 +15°C° 0 mm 5 mps 746 mmHg 52%
    14:00 +14°C° 0 mm 5 mps 746 mmHg 55%
    15:00 +13°C° 0 mm 5 mps 745 mmHg 59%
    16:00 +13°C° 0 mm 5 mps 744 mmHg 63%
    17:00 +12°C° 0 mm 5 mps 744 mmHg 67%
    18:00 +10°C° 0 mm 5 mps 743 mmHg 70%
    19:00 +9°C° 0 mm 5 mps 743 mmHg 74%
    20:00 +8°C° 0 mm 5 mps 742 mmHg 73%
    21:00 +8°C° 0 mm 5 mps 742 mmHg 72%
    22:00 +8°C° 0 mm 5 mps 741 mmHg 71%
    23:00 +9°C° 0 mm 5 mps 741 mmHg 70%

    Tomorrow, 31 May, Sunday

    Time Temperature Precipitation Wind Pressure Humidity
    00:00 +10°C° 0 mm 4 mps 740 mmHg 69%
    01:00 +11°C° 0 mm 4 mps 739 mmHg 68%
    02:00 +10°C° 0 mm 3 mps 739 mmHg 71%
    03:00 +10°C° 0 mm 3 mps 739 mmHg 75%
    04:00 +10°C° 0 mm 2 mps 739 mmHg 78%
    05:00 +9°C° 0 mm 2 mps 740 mmHg 82%
    06:00 +8°C° 0 mm 2 mps 740 mmHg 86%
    07:00 +8°C° 0 mm 2 mps 740 mmHg 90%
    08:00 +9°C° 0 mm 2 mps 740 mmHg 83%
    09:00 +10°C° 0 mm 3 mps 740 mmHg 76%
    10:00 +11°C° 0 mm 3 mps 741 mmHg 69%
    11:00 +12°C° 0 mm 3 mps 740 mmHg 65%
    12:00 +13°C° 0 mm 3 mps 740 mmHg 60%
    13:00 +13°C° 0 mm 4 mps 740 mmHg 56%
    14:00 +13°C° 0 mm 3 mps 740 mmHg 58%
    15:00 +13°C° 0 mm 2 mps 739 mmHg 61%
    16:00 +13°C° 0 mm 2 mps 739 mmHg 63%
    17:00 +10°C° 0 mm 2 mps 739 mmHg 69%
    18:00 +9°C° 0 mm 2 mps 739 mmHg 75%
    19:00 +7°C° 0 mm 2 mps 739 mmHg 81%
    20:00 +7°C° 0 mm 2 mps 739 mmHg 81%
    21:00 +7°C° 0 mm 3 mps 739 mmHg 80%
    22:00 +7°C° 0 mm 3 mps 739 mmHg 80%
    23:00 +7°C° 0 mm 3 mps 738 mmHg 80%

    Day after tomorrow, 1 June, Monday

    Time Temperature Precipitation Wind Pressure Humidity
    00:00 +7°C° 0 mm 3 mps 738 mmHg 80%
    01:00 +7°C° 0 mm 3 mps 737 mmHg 80%
    02:00 +7°C° 0 mm 3 mps 737 mmHg 82%
    03:00 +7°C° 0 mm 3 mps 736 mmHg 83%
    04:00 +7°C° 0 mm 3 mps 736 mmHg 85%
    05:00 +7°C° 0.1 mm 3 mps 736 mmHg 86%
    06:00 +7°C° 0.1 mm 2 mps 736 mmHg 87%
    07:00 +7°C° 0.1 mm 2 mps 736 mmHg 88%
    08:00 +8°C° 0.1 mm 2 mps 737 mmHg 86%
    09:00 +9°C° 0.1 mm 2 mps 737 mmHg 83%
    10:00 +10°C° 0.1 mm 3 mps 738 mmHg 80%
    11:00 +9°C° 0.3 mm 3 mps 738 mmHg 84%
    12:00 +7°C° 0.3 mm 4 mps 739 mmHg 88%
    13:00 +7°C° 0.3 mm 4 mps 739 mmHg 91%
    14:00 +6°C° 0.3 mm 4 mps 740 mmHg 89%
    15:00 +7°C° 0.3 mm 3 mps 741 mmHg 87%
    16:00 +5°C° 0.3 mm 3 mps 741 mmHg 85%
    17:00 +5°C° 0 mm 3 mps 742 mmHg 86%
    18:00 +4°C° 0 mm 3 mps 743 mmHg 88%
    19:00 +3°C° 0 mm 3 mps 744 mmHg 89%
    20:00 +3°C° 0 mm 3 mps 744 mmHg 88%
    21:00 +2°C° 0 mm 3 mps 744 mmHg 88%
    22:00 +2°C° 0 mm 3 mps 744 mmHg 87%
    23:00 +3°C° 0 mm 3 mps 744 mmHg 87%

    2 June, Tuesday

    Time Temperature Precipitation Wind Pressure Humidity
    00:00 +3°C° 0 mm 3 mps 744 mmHg 87%
    01:00 +4°C° 0 mm 3 mps 744 mmHg 88%
    02:00 +4°C° 0 mm 3 mps 744 mmHg 89%
    03:00 +5°C° 0 mm 3 mps 745 mmHg 90%
    04:00 +5°C° 0 mm 3 mps 745 mmHg 91%
    05:00 +6°C° 0 mm 2 mps 745 mmHg 92%
    06:00 +6°C° 0 mm 2 mps 746 mmHg 93%
    07:00 +6°C° 0 mm 2 mps 746 mmHg 94%
    08:00 +8°C° 0 mm 2 mps 746 mmHg 88%
    09:00 +9°C° 0 mm 2 mps 747 mmHg 83%
    10:00 +11°C° 0 mm 3 mps 747 mmHg 78%
    11:00 +11°C° 0 mm 3 mps 747 mmHg 74%
    12:00 +12°C° 0 mm 4 mps 747 mmHg 71%
    13:00 +12°C° 0 mm 4 mps 747 mmHg 68%
    14:00 +12°C° 0 mm 4 mps 747 mmHg 71%
    15:00 +11°C° 0 mm 4 mps 746 mmHg 75%
    16:00 +11°C° 0 mm 4 mps 746 mmHg 78%
    17:00 +11°C° 0 mm 4 mps 747 mmHg 78%
    18:00 +11°C° 0 mm 4 mps 747 mmHg 78%
    19:00 +10°C° 0 mm 5 mps 747 mmHg 78%
    20:00 +9°C° 0 mm 5 mps 748 mmHg 78%
    21:00 +8°C° 0 mm 5 mps 748 mmHg 78%
    22:00 +7°C° 0 mm 5 mps 748 mmHg 79%
    23:00 +7°C° 0 mm 5 mps 749 mmHg 78%

    3 June, Wednesday

    Time Temperature Precipitation Wind Pressure Humidity
    00:00 +6°C° 0 mm 5 mps 749 mmHg 77%
    01:00 +6°C° 0 mm 5 mps 749 mmHg 76%
    02:00 +6°C° 0 mm 5 mps 750 mmHg 75%
    03:00 +6°C° 0 mm 5 mps 750 mmHg 75%
    04:00 +6°C° 0 mm 5 mps 750 mmHg 74%
    05:00 +6°C° 0 mm 5 mps 751 mmHg 76%
    06:00 +5°C° 0 mm 5 mps 752 mmHg 78%
    07:00 +5°C° 0 mm 5 mps 752 mmHg 79%
    08:00 +6°C° 0 mm 5 mps 753 mmHg 74%
    09:00 +7°C° 0 mm 5 mps 753 mmHg 69%
    10:00 +8°C° 0 mm 5 mps 754 mmHg 63%
    11:00 +9°C° 0 mm 5 mps 754 mmHg 59%
    12:00 +9°C° 0 mm 5 mps 754 mmHg 56%
    13:00 +11°C° 0 mm 4 mps 754 mmHg 52%
    14:00 +10°C° 0 mm 4 mps 754 mmHg 56%
    15:00 +10°C° 0 mm 4 mps 755 mmHg 59%
    16:00 +8°C° 0 mm 4 mps 755 mmHg 63%
    17:00 +8°C° 0 mm 3 mps 755 mmHg 68%
    18:00 +7°C° 0 mm 3 mps 756 mmHg 74%
    19:00 +5°C° 0 mm 3 mps 756 mmHg 79%
    20:00 +4°C° 0 mm 3 mps 756 mmHg 81%
    21:00 +4°C° 0 mm 3 mps 757 mmHg 83%
    22:00 +5°C° 0 mm 2 mps 757 mmHg 85%
    23:00 +5°C° 0 mm 2 mps 757 mmHg 86%

    4 June, Thursday

    Time Temperature Precipitation Wind Pressure Humidity
    00:00 +4°C° 0 mm 2 mps 757 mmHg 87%
    01:00 +4°C° 0 mm 2 mps 757 mmHg 88%
    02:00 +4°C° 0 mm 2 mps 757 mmHg 89%
    03:00 +4°C° 0 mm 2 mps 757 mmHg 90%
    04:00 +3°C° 0 mm 2 mps 757 mmHg 92%
    05:00 +3°C° 0 mm 2 mps 757 mmHg 92%
    06:00 +3°C° 0 mm 2 mps 757 mmHg 92%
    07:00 +3°C° 0 mm 2 mps 757 mmHg 93%
    08:00 +4°C° 0 mm 2 mps 757 mmHg 85%
    09:00 +6°C° 0 mm 2 mps 757 mmHg 78%
    10:00 +7°C° 0 mm 2 mps 757 mmHg 71%
    11:00 +8°C° 0 mm 2 mps 757 mmHg 66%
    12:00 +11°C° 0 mm 1 mps 756 mmHg 61%
    13:00 +12°C° 0 mm 1 mps 756 mmHg 56%
    14:00 +11°C° 0 mm 1 mps 756 mmHg 60%
    15:00 +11°C° 0 mm 1 mps 755 mmHg 64%
    16:00 +10°C° 0 mm 1 mps 755 mmHg 68%
    17:00 +9°C° 0 mm 1 mps 755 mmHg 73%
    18:00 +7°C° 0 mm 2 mps 755 mmHg 78%
    19:00 +6°C° 0 mm 2 mps 755 mmHg 83%
    20:00 +7°C° 0 mm 2 mps 755 mmHg 83%
    21:00 +7°C° 0 mm 2 mps 755 mmHg 82%
    22:00 +7°C° 0 mm 2 mps 755 mmHg 82%
    23:00 +7°C° 0 mm 2 mps 755 mmHg 84%
    Show more